STARLINK-33837, 63501

Orbit data source: Space-Track

STARLINK-33837, 63501 is a payload satellite owned by SpaceX/Seattle (US) in LEO that was launched on Mon, 07 Apr 2025 UTC via an FALCON 9 launch vehicle from the Air Force Western Test Range (AFWTR). Payload-class satellites include a variety of spacecraft equipped with specific instruments for various scientific and technological missions. These include communications satellites like Starlink; space stations such as the ISS; scientific satellites like the Hubble; Earth observation satellites from companies like Planet Labs, Umbra, and HawkEye 360; GPS; miniature CubeSats for education and research; and military/defense satellites.

Loading next visibility...
Identifier
63501, 2025-071J
Orbit
LEO
Country
Flag of USUS
Related business
Manufacturer
SpaceX/Seattle
Mission
Operational Commercial Communications
Bus & Motor
STARLINK V2MO, Unknown motor
Mass
575 kg wet, ~530 kg dry
Launch date (UTC)
2025-04-07 (8 months ago)
Launch vehicle
FALCON 9
Launch site
Air Force Western Test Range (AFWTR)
Object type
Payload
Rocket body
Debris
Shape & HBR
Box + 2 Pan, 17.7 m
Radar Cross Section
36.964 m², Large (>1 m²)

Expand to show TLE details & history
Last TLE update: 22 hours ago

TLE from 22 hours ago
0 STARLINK-33837
1 63501U 25071J   25348.89604468  .00015673  00000-0  54011-3 0  9993
2 63501  53.1572 174.0665 0001100  99.3784 260.7342 15.30202722 39720
Epoch: 2025-12-14T21:30Z
TLE epoch observation values (Epoch: 2025-12-14T21:30:18.260Z)
Latitude
0.00006°
Longitude
127.68807°
Altitude
476.228 km
Speed
7.629 km/s
True Right ascension
11h 36m 15s
True Declination
0° 00' 00"
Sunlit
Object was in daylight at epoch
Visualization orbit readout
Latitude
Unknown
Longitude
Unknown
Altitude
Unknown
Speed
Unknown
Apparent Right ascension
Unknown
Apparent Declination
Unknown
Sunlit
N/A
Visualization observer readout
Local Sidereal Time
18:34:24
Azimuth
Unknown
Elevation
Unknown
Doppler factor
Unknown
Orbital elements
Apogee altitude
476.218 km
Perigee altitude
474.71 km
Semi-major axis
6,853.601 km
Eccentricity
0.00011
Inclination
53.1572°
RAAN
174.0665°
Arg. of periapsis
99.3784°
True anomaly
260.72176°
Mean anomaly
260.7342°
Eccentric anomaly
260.72798°
Mean motion
3.8253 °/min
Orbital period
94.11 mins
BSTAR
0.00054011
Loading maneuver chart data...
Computing Atmospheric mass density...
Loading historical data...
Loading historical data...
Loading historical data...
Loading historical data...
Loading historical data...
Loading historical data...
Loading historical data...

Documentation

Showing up to 5 results
|